Visibility
15.0 15.0 15.0 15.0 15.0 15.0 15.0 15.0 15.0 15.0 15.0 15.0 10.8 15.0 15.0 15.0 14.6 15.0 15.0 15.0 3.6 3.6 5.5 9.4 15.0 15.0 15.0 15.0 15.0 15.0 15.0 15.0 15.0 15.0 15.0 15.0 15.0 15.0 15.0 15.0 15.0 15.0 15.0
15.0 15.0 15.0 15.0 15.0 15.0 15.0 15.0 15.0 15.0 15.0 15.0 12.5 14.3 15.0 15.0 15.0 15.0 15.0 14.5 15.0 15.0 3.3 15.0 7.0 15.0 15.0 15.0 15.0 14.8 15.0 15.0 15.0 15.0 15.0 15.0 15.0 15.0 15.0 15.0 15.0 15.0 15.0
15.0 15.0 15.0 15.0 15.0 15.0 15.0 15.0 15.0 15.0 15.0 15.0 15.0 15.0 14.2 12.7 11.3 15.0 15.0 15.0 12.9 15.0 15.0 13.6 4.0 13.9 11.9 15.0 15.0 15.0 14.8 15.0 15.0 15.0 15.0 15.0 15.0 15.0 15.0 15.0 15.0 15.0 15.0
15.0 15.0 15.0 15.0 15.0 15.0 15.0 15.0 15.0 15.0 15.0 15.0 15.0 15.0 15.0 15.0 15.0 15.0 14.9 5.9 9.9 15.0 15.0 13.6 15.0 13.2 13.3 13.5 9.3 15.0 14.8 14.1 15.0 15.0 15.0 15.0 15.0 15.0 15.0 15.0 15.0 15.0 15.0
15.0 15.0 15.0 15.0 15.0 15.0 15.0 15.0 15.0 15.0 15.0 15.0 15.0 15.0 15.0 15.0 15.0 15.0 15.0 15.0 15.0 15.0 4.4 5.6 7.3 11.4 5.7 14.6 6.2 4.8 5.1 13.1 15.0 15.0 15.0 15.0 15.0 15.0 15.0 15.0 15.0 15.0 15.0
15.0 15.0 15.0 15.0 15.0 15.0 15.0 15.0 15.0 15.0 15.0 15.0 15.0 15.0 15.0 15.0 15.0 15.0 15.0 15.0 15.0 15.0 15.0 15.0 15.0 7.4 4.2 15.0 12.7 15.0 4.8 5.8 1.9 2.4 3.1 15.0 15.0 15.0 15.0 15.0 15.0 15.0 15.0
15.0 15.0 15.0 15.0 15.0 15.0 15.0 15.0 15.0 15.0 15.0 15.0 15.0 15.0 15.0 15.0 15.0 15.0 15.0 15.0 15.0 15.0 15.0 15.0 15.0 3.1 9.3 13.4 6.6 6.4 14.2 7.9 2.7 1.8 4.4 1.5 15.0 15.0 15.0 15.0 15.0 15.0 15.0
15.0 15.0 15.0 15.0 15.0 15.0 15.0 15.0 15.0 15.0 15.0 15.0 15.0 15.0 15.0 15.0 15.0 15.0 15.0 15.0 15.0 15.0 15.0 15.0 15.0 15.0 15.0 9.0 4.2 6.8 9.9 15.0 14.1 14.3 9.1 3.0 1.1 2.1 11.4 5.5 6.6 15.0 15.0
15.0 15.0 15.0 15.0 15.0 15.0 15.0 15.0 15.0 15.0 15.0 15.0 15.0 15.0 15.0 15.0 15.0 15.0 15.0 15.0 15.0 15.0 15.0 15.0 15.0 15.0 15.0 15.0 15.0 0.5 4.9 9.7 14.1 15.0 15.0 4.5 5.0 3.2 2.5 3.2 4.7 12.6 15.0
15.0 15.0 15.0 15.0 15.0 15.0 15.0 15.0 15.0 15.0 15.0 15.0 15.0 15.0 15.0 15.0 15.0 15.0 15.0 15.0 15.0 15.0 15.0 15.0 15.0 15.0 15.0 15.0 15.0 13.3 14.6 8.2 8.2 7.1 4.8 4.1 6.6 4.2 5.3 7.2 15.0 15.0 15.0
15.0 15.0 15.0 15.0 15.0 15.0 15.0 15.0 15.0 15.0 15.0 15.0 15.0 15.0 15.0 15.0 15.0 15.0 15.0 15.0 15.0 15.0 15.0 15.0 15.0 15.0 15.0 15.0 15.0 15.0 15.0 8.4 7.3 5.1 8.3 13.0 15.0 15.0 4.9 6.1 15.0 15.0 15.0
15.0 15.0 15.0 15.0 15.0 15.0 15.0 15.0 15.0 15.0 15.0 15.0 15.0 15.0 15.0 15.0 15.0 15.0 15.0 15.0 15.0 15.0 15.0 15.0 15.0 15.0 15.0 15.0 0.2 1.5 15.0 15.0 14.7 15.0 9.2 5.9 5.3 11.1 10.4 7.5 12.2 13.2 15.0
15.0 15.0 15.0 15.0 15.0 15.0 15.0 15.0 15.0 15.0 15.0 15.0 15.0 15.0 15.0 15.0 15.0 15.0 15.0 15.0 15.0 15.0 15.0 15.0 15.0 15.0 15.0 15.0 15.0 15.0 15.0 9.2 9.4 11.8 9.8 7.6 7.7 8.4 5.9 6.5 6.0 10.9 8.6
15.0 15.0 15.0 15.0 15.0 15.0 15.0 15.0 15.0 15.0 15.0 15.0 15.0 15.0 15.0 15.0 15.0 15.0 15.0 15.0 15.0 15.0 15.0 15.0 15.0 15.0 15.0 15.0 9.8 8.3 8.2 11.2 11.9 9.1 7.4 10.3 15.0 10.6 13.0 6.1 6.4 10.3 6.7
15.0 15.0 15.0 15.0 15.0 15.0 15.0 15.0 15.0 15.0 15.0 15.0 15.0 15.0 15.0 15.0 15.0 15.0 15.0 15.0 15.0 15.0 15.0 15.0 15.0 15.0 15.0 15.0 10.2 4.9 4.2 1.3 0.4 3.0 3.4 3.1 3.8 4.2 7.9 6.8 6.6 8.3 4.9
15.0 15.0 15.0 15.0 15.0 15.0 15.0 15.0 15.0 15.0 15.0 15.0 15.0 15.0 15.0 15.0 15.0 15.0 15.0 15.0 15.0 15.0 15.0 15.0 15.0 15.0 15.0 15.0 6.7 5.4 0.8 2.4 0.3 0.1 0.2 2.4 4.5 4.3 4.0 4.9 7.8 6.8 3.2
15.0 15.0 15.0 15.0 15.0 15.0 15.0 15.0 15.0 15.0 15.0 15.0 15.0 15.0 15.0 15.0 15.0 15.0 15.0 15.0 15.0 15.0 15.0 15.0 15.0 15.0 15.0 15.0 4.1 12.2 4.7 0.3 0.5 0.2 0.1 0.1 0.2 0.4 0.2 1.3 3.0 3.2 4.6
15.0 15.0 15.0 15.0 15.0 15.0 15.0 15.0 15.0 15.0 15.0 15.0 15.0 15.0 15.0 15.0 15.0 15.0 15.0 15.0 15.0 15.0 15.0 15.0 15.0 15.0 7.8 0.9 0.4 12.9 0.8 0.2 0.2 0.3 3.9 0.5 0.1 0.1 0.1 0.0 0.0 0.0 0.0
15.0 15.0 15.0 15.0 15.0 15.0 15.0 15.0 15.0 15.0 15.0 15.0 15.0 15.0 15.0 15.0 15.0 15.0 15.0 15.0 15.0 15.0 15.0 15.0 15.0 0.9 0.0 0.2 0.3 0.5 0.1 0.1 0.1 0.3 6.7 3.5 0.1 0.1 0.0 0.0 0.1 0.1 0.1
15.0 15.0 15.0 15.0 15.0 15.0 15.0 15.0 15.0 15.0 15.0 15.0 15.0 15.0 15.0 15.0 15.0 15.0 15.0 15.0 15.0 15.0 15.0 1.3 0.0 0.0 0.0 0.2 0.4 2.9 4.0 0.1 0.1 0.1 0.2 0.2 0.0 0.0 0.0 1.9 1.1 0.4 0.3
15.0 15.0 15.0 15.0 15.0 15.0 15.0 15.0 15.0 15.0 15.0 15.0 15.0 15.0 15.0 15.0 15.0 15.0 10.8 2.1 0.7 8.5 0.8 0.1 0.0 0.0 0.0 0.1 6.0 9.0 15.0 13.2 0.1 0.1 0.1 0.0 0.0 0.0 2.4 15.0 15.0 14.8 15.0
15.0 15.0 15.0 15.0 15.0 15.0 15.0 15.0 15.0 15.0 15.0 15.0 15.0 15.0 15.0 15.0 15.0 11.6 0.0 0.0 1.2 0.3 0.0 0.0 0.0 0.0 0.0 0.1 11.5 8.0 8.5 15.0 1.7 0.1 0.1 0.1 0.1 2.2 15.0 15.0 15.0 15.0 15.0
15.0 15.0 15.0 15.0 15.0 15.0 15.0 15.0 15.0 15.0 11.5 0.3 2.0 15.0 15.0 15.0 15.0 0.3 0.0 0.0 0.1 1.8 0.1 0.0 0.0 0.0 0.0 0.1 15.0 8.6 4.7 0.9 0.1 0.1 0.1 0.0 0.1 0.3 5.5 15.0 15.0 15.0 15.0
15.0 15.0 15.0 15.0 13.9 15.0 14.9 6.2 11.7 15.0 15.0 0.1 0.0 0.0 0.0 0.1 0.1 0.1 0.2 0.1 0.0 0.1 0.6 0.0 0.0 0.0 0.0 0.0 0.1 0.1 0.1 0.0 0.0 0.1 0.1 0.1 10.0 15.0 13.3 13.6 9.9 14.2 15.0
15.0 15.0 15.0 15.0 15.0 9.3 8.4 12.4 15.0 15.0 15.0 14.1 0.0 0.0 0.0 0.0 0.0 0.0 0.0 0.0 0.0 0.0 0.0 0.0 0.0 0.0 0.0 0.0 1.3 1.2 0.1 0.1 0.2 0.1 0.1 0.1 0.2 3.3 1.3 0.5 15.0 15.0 15.0
15.0 15.0 15.0 15.0 0.1 0.0 0.0 0.0 0.1 2.5 11.6 15.0 7.5 0.0 0.0 0.0 0.0 0.0 0.0 0.2 0.1 0.1 0.1 1.8 0.1 0.1 1.4 0.1 0.0 0.0 0.0 0.0 0.1 0.3 0.2 0.1 0.2 0.3 1.0 15.0 15.0 15.0 15.0